Address 0x78de52ffa1c48288da2e557a10bcd490262a7d3a

 
Txn Hash Method
Block
From
To
Value [Txn Fee]
0xacb752738a4ed57cf1b9a4fe18f77a3346daee7a0968a8cd063b15c27af33ba7Transfer108496182021-09-12 12:41:308 days 13 hrs ago0x78de52ffa1c48288da2e557a10bcd490262a7d3aOUT0x3fae2eac3330b88a0f6bc3488e141a8d5a312f9b0.01244220196 BNB0.000105
0xda303a2a611768a536958ea9fb076e1b35fdb1aa204da20c23704140360ac80dTransfer99672562021-08-12 14:22:1839 days 12 hrs ago0x78de52ffa1c48288da2e557a10bcd490262a7d3aOUT CryptoBlades: SKILL Token0 BNB0.000133188
0xbea0d800b31ddfa86114b0ffe25048c3de1cf5d95d1730d306e92664e3bb9795Claim Token Rewa...99670522021-08-12 14:11:4839 days 12 hrs ago0x78de52ffa1c48288da2e557a10bcd490262a7d3aOUT CryptoBlades: Gameplay0 BNB0.0002625755
0x42e676d7987da82c63dcfda4f055e3c53dd3acde188fcfe7e76633f47eefbe42Claim Token Rewa...99669762021-08-12 14:07:3239 days 12 hrs ago0x78de52ffa1c48288da2e557a10bcd490262a7d3aOUT CryptoBlades: Gameplay0 BNB0.0002625755
0x1c98cd58bf546d23e632a05782ea2a525b727bb4fde9de64affbb303cb15945aClaim Token Rewa...99668922021-08-12 14:03:0239 days 12 hrs ago0x78de52ffa1c48288da2e557a10bcd490262a7d3aOUT CryptoBlades: Gameplay0 BNB0.000250283
0x5baacc4316b7eaa6238a7199577a1b90111acc77ae304c4861c409f4c43b5583Fight99621202021-08-12 10:00:5339 days 16 hrs ago0x78de52ffa1c48288da2e557a10bcd490262a7d3aOUT CryptoBlades: Gameplay0 BNB0.0008256545
0xc0019aa47bc805e7b0bf8021b49d8aafca44a8ad642388d6b3fc331d7410c66eFight99574852021-08-12 6:03:4939 days 20 hrs ago0x78de52ffa1c48288da2e557a10bcd490262a7d3aOUT CryptoBlades: Gameplay0 BNB0.00082632
0x5efa65ddf1cabf17cf3c39580e6a0e52ec8484a5e033ef8e697d73de80ddca16Fight99568192021-08-12 5:29:1639 days 21 hrs ago0x78de52ffa1c48288da2e557a10bcd490262a7d3aOUT CryptoBlades: Gameplay0 BNB0.0008243785
0x7f94ad12172862078d60529471f1bec8e7f630803f42504ed27e28471560b100Fight99544712021-08-12 3:28:0939 days 23 hrs ago0x78de52ffa1c48288da2e557a10bcd490262a7d3aOUT CryptoBlades: Gameplay0 BNB0.0008257095
0x1b8fcf208820ab46a23b19d35e1347e2a46a36c3e49b3af3b75ab16355aa256aFight99468962021-08-11 21:00:2140 days 5 hrs ago0x78de52ffa1c48288da2e557a10bcd490262a7d3aOUT CryptoBlades: Gameplay0 BNB0.0009069995
0xe8ff9b5046300ebb0bfb11bc4aecb60034c35837393b55236238c031e4343bc3Fight99421342021-08-11 16:21:5140 days 10 hrs ago0x78de52ffa1c48288da2e557a10bcd490262a7d3aOUT CryptoBlades: Gameplay0 BNB0.0009040845
0x3a761f76c85782141cf6fef83953829b50779fced41ca8e204b207a4c0385805Fight99421292021-08-11 16:21:3640 days 10 hrs ago0x78de52ffa1c48288da2e557a10bcd490262a7d3aOUT CryptoBlades: Gameplay0 BNB0.0009083305
0xa88fee7ff6ea1c67854698f41eb1d7b8b887c3d63738c27b7fd02528bd2726b2Fight99395242021-08-11 14:06:5440 days 12 hrs ago0x78de52ffa1c48288da2e557a10bcd490262a7d3aOUT CryptoBlades: Gameplay0 BNB0.0010194195
0x6341f721b2829c0666fa8dbad7108580214698500d7fa7f0e9e98bd8fd3672a2Claim Xp Rewards99391752021-08-11 13:47:3040 days 12 hrs ago0x78de52ffa1c48288da2e557a10bcd490262a7d3aOUT CryptoBlades: Gameplay0 BNB0.00249948
0x5d86570c9936258cec41401cb76f8cf51ae64fffe69f2757615dad263764c814Claim Token Rewa...99388512021-08-11 13:31:1540 days 13 hrs ago0x78de52ffa1c48288da2e557a10bcd490262a7d3aOUT CryptoBlades: Gameplay0 BNB0.000332904
0x7c61b5a0476cf40277562bc3007276b0798cbe18a1e936d7e44db9547c1dcf05Fight99317142021-08-11 7:31:5840 days 19 hrs ago0x78de52ffa1c48288da2e557a10bcd490262a7d3aOUT CryptoBlades: Gameplay0 BNB0.000820919
0x1b4647fa92c4e2dc770ea7d5e5aa22b589c943e0ae8baeb3a7142fb5fc88466dFight99264812021-08-11 3:08:0540 days 23 hrs ago0x78de52ffa1c48288da2e557a10bcd490262a7d3aOUT CryptoBlades: Gameplay0 BNB0.0008244995
0x4fe0a4f18bbf1b9542358d221c5e14af57d9e29d6a99a190d63f0a89ef31f37eFight99259062021-08-11 2:39:2041 days ago0x78de52ffa1c48288da2e557a10bcd490262a7d3aOUT CryptoBlades: Gameplay0 BNB0.0008201325
0xe11d26ae3bb124eab21cc7350d36f5b6de5280f16f50f8d46dac9c9bcc095f5cFight99236262021-08-11 0:45:1941 days 1 hr ago0x78de52ffa1c48288da2e557a10bcd490262a7d3aOUT CryptoBlades: Gameplay0 BNB0.0008244995
0x9fe827e7afa093a9f624362af6a3ecc54b81a3dc3af349f992580c0489829e12Fight99155762021-08-10 18:02:2841 days 8 hrs ago0x78de52ffa1c48288da2e557a10bcd490262a7d3aOUT CryptoBlades: Gameplay0 BNB0.000936309
0xd9baaffac05f46725df5b752e585e12cd2864daf13d79b816e5c1fe10bcd1220Transfer99135202021-08-10 16:19:1741 days 10 hrs ago0x78de52ffa1c48288da2e557a10bcd490262a7d3aOUT CryptoBlades: SKILL Token0 BNB0.000133188
0xcfa87622651715854c968c606c25e3ee121b5d05f62eadceabbf288b6b698ef0Claim Token Rewa...99133102021-08-10 16:08:4741 days 10 hrs ago0x78de52ffa1c48288da2e557a10bcd490262a7d3aOUT CryptoBlades: Gameplay0 BNB0.000332904
0xa380e2d81340919637130d2e6782c05aef3d9a726105c980d6d27d2a3852c71bTransfer99127432021-08-10 15:40:2541 days 10 hrs ago0x23bc8c8617af52f33fdaeb5ff94ab3c21b30d915 IN 0x78de52ffa1c48288da2e557a10bcd490262a7d3a0.02 BNB0.000105
0x6eb827f7725d8165e1720d93aa8246afaeedc3d9242a52ba739b0f67cd1c8205Fight99104462021-08-10 13:45:1841 days 12 hrs ago0x78de52ffa1c48288da2e557a10bcd490262a7d3aOUT CryptoBlades: Gameplay0 BNB0.0008244445
0xd7e14b91e765ba4f24765943b2e7103dcaa2ea074d98313115d2ae2bb46a4e08Fight99104422021-08-10 13:45:0641 days 12 hrs ago0x78de52ffa1c48288da2e557a10bcd490262a7d3aOUT CryptoBlades: Gameplay0 BNB0.0008201875
[ Download CSV Export 
Latest 1 internal transaction
Parent Txn Hash Block From To Value
0x08bf1e001389eb862761d487767e69a156dcda02b76f82b7a3400e912aec611191996252021-07-16 6:26:4466 days 20 hrs ago CoinTool: MultiSender0x78de52ffa1c48288da2e557a10bcd490262a7d3a0.09 BNB
[ Download CSV Export 
Loading

Contract Name:
0 BNB

Compiler Version
0

Optimization Enabled:
0 BNB

Other Settings:
-NA-
Block Transaction Gas Used Reward
Age Block Fee Address BC Fee Address Voting Power Jailed Incoming
Block Uncle Number Difficulty Gas Used Reward
Loading
Loading
Make sure to use the "Vote Down" button for any spammy posts, and the "Vote Up" for interesting conversations.